Location: Warner Observatory
(35.1353°N, 89.5455°W)
Time: 18:50:08
(UTC-05:00)

Amateur Radio Satellites - All Passes

Search period start: 31 August 2015 18:20
Search period end: 01 September 2015 18:20
Location: Warner Observatory, 35.1353°N, 89.5455°W

Satellite Date Start Highest point End Downlink Frequencies (MHz)
Time Altitude Azimuth
CUTE-I 31 Aug 18:26:33 18:31:51 76° 76° (ENE) 18:37:11 437.470
O/OREOS (USA 219) 31 Aug 18:29:05 18:32:42 24° 103° (ESE) 18:36:27 437.305
STRAND 1 31 Aug 18:52:25 18:54:57 14° 91° (E) 18:57:47 437.568
MOZHAYETS 4 31 Aug 18:54:35 18:55:41 11° 294° (WNW) 18:56:31
CUBESAT XI-V 31 Aug 19:07:20 19:12:00 90° 102° (ESE) 19:16:40 437.345
SRMSAT 31 Aug 19:07:33 19:10:17 13° 191° (S) 19:12:57 437.500
BRITE-PL 31 Aug 19:17:02 19:20:50 32° 71° (ENE) 19:24:57 437.365/2234.400
Cubesat XI-IV 31 Aug 19:22:14 19:26:57 31° 264° (W) 19:31:36 437.490
CANX-2 31 Aug 19:34:10 19:35:37 12° 68° (ENE) 19:37:19 2200.000
HO-68 31 Aug 19:36:56 19:42:42 28° 65° (ENE) 19:48:41 435.675
RS-15 31 Aug 19:38:17 19:45:55 19° 333° (NNW) 19:53:22 29.354- 29.394
PRISM 31 Aug 19:40:08 19:43:41 29° 97° (E) 19:47:18 437.425
GOMX 1 31 Aug 19:46:41 19:50:48 39° 72° (ENE) 19:55:15 467.674
AIST 1 31 Aug 19:52:59 19:57:19 74° 265° (W) 20:01:39
SEEDS 31 Aug 19:55:10 19:57:25 15° 69° (ENE) 19:59:51 437.485
DOVE 4 31 Aug 20:01:16 20:05:20 34° 72° (ENE) 20:09:43 437.250
O/OREOS (USA 219) 31 Aug 20:08:12 20:12:04 26° 298° (WNW) 20:15:52 437.305
CUTE-I 31 Aug 20:11:19 20:12:36 11° 271° (W) 20:13:28 437.470
Cosmos 2491 31 Aug 20:16:16 20:24:48 56° 78° (ENE) 20:33:24 435.465 / 435.565
COMPASS 1 31 Aug 20:16:35 20:19:35 20° 71° (ENE) 20:22:42 437.405
YUBILEINY 31 Aug 20:21:05 20:27:59 28° 85° (E) 20:35:13 435.215
AAUSAT CUBESAT 2 31 Aug 20:26:46 20:29:56 22° 71° (ENE) 20:33:11 437.432
STRAND 1 31 Aug 20:29:34 20:34:34 55° 286° (WNW) 20:39:33 437.568
CUBEBUG 2 31 Aug 20:40:50 20:43:46 17° 68° (ENE) 20:46:55 437.445
CINEMA 3 31 Aug 20:47:39 20:52:04 46° 74° (ENE) 20:56:44 145.822/145.860
UWE-3 31 Aug 20:48:25 20:51:06 16° 68° (ENE) 20:54:00 435.000/436.395/437.385
FUNcube-1 31 Aug 20:48:58 20:50:09 11° 66° (ENE) 20:51:37 145.935
CUTE 1.7 + AOD 2 31 Aug 20:52:49 20:57:07 88° 260° (W) 21:01:25 437.475
DELFI C3 31 Aug 20:54:06 20:55:12 11° 68° (ENE) 20:56:33 145.870
BRITE-PL 31 Aug 20:56:31 20:59:34 18° 269° (W) 21:02:35 437.365/2234.400
CANX-2 31 Aug 21:06:57 21:11:08 52° 261° (W) 21:15:21 2200.000
PRISM 31 Aug 21:16:01 21:18:57 19° 290° (WNW) 21:21:45 437.425
HO-68 31 Aug 21:23:14 21:30:08 50° 260° (W) 21:37:04 435.675
GOMX 1 31 Aug 21:26:25 21:29:15 16° 270° (W) 21:31:59 467.674
SEEDS 31 Aug 21:28:52 21:32:53 40° 262° (W) 21:36:54 437.485
HUMSAT D 31 Aug 21:29:24 21:30:47 12° 67° (ENE) 21:32:25 437.325/437.525
Oscar 11 31 Aug 21:33:29 21:37:44 58° 76° (ENE) 21:42:02 145.826/435.025
DOVE 4 31 Aug 21:39:53 21:43:15 20° 269° (W) 21:46:38 437.250
COMPASS 1 31 Aug 21:51:24 21:55:05 28° 264° (W) 21:58:42 437.405
RS-15 31 Aug 22:00:06 22:05:00 13° 10° (N) 22:10:14 29.354- 29.394
AAUSAT CUBESAT 2 31 Aug 22:01:53 22:05:24 25° 265° (W) 22:08:51 437.432
Cosmos 2491 31 Aug 22:14:07 22:21:14 27° 275° (W) 22:28:02 435.465 / 435.565
CUBEBUG 2 31 Aug 22:15:46 22:20:08 41° 263° (W) 22:24:35 437.445
YUBILEINY 31 Aug 22:15:49 22:24:23 55° 282° (WNW) 22:32:59 435.215
ZACube-1 31 Aug 22:16:00 22:20:31 72° 259° (W) 22:25:07 437.345
VELOX 1 31 Aug 22:17:20 22:19:43 15° 68° (ENE) 22:22:18 145.980
FUNcube-1 31 Aug 22:21:29 22:25:57 64° 260° (W) 22:30:31 145.935
UWE-3 31 Aug 22:22:53 22:27:15 44° 262° (W) 22:31:43 435.000/436.395/437.385
DELFI C3 31 Aug 22:25:57 22:29:53 48° 261° (W) 22:33:49 145.870
CINEMA 3 31 Aug 22:26:51 22:29:37 15° 270° (W) 22:32:13 145.822/145.860
TIGRISAT 31 Aug 22:32:07 22:34:49 16° 91° (E) 22:37:41 435.000
ANTELSAT 31 Aug 22:48:21 22:52:07 26° 95° (E) 22:55:52 437.575/2403.000
Cosmos 2504 31 Aug 23:01:01 23:08:19 41° 88° (E) 23:16:09 435.465 / 435.565
DX 1 31 Aug 23:01:23 23:05:42 82° 76° (ENE) 23:10:03 434.975-435.025
HUMSAT D 31 Aug 23:01:52 23:06:05 54° 260° (W) 23:10:20 437.325/437.525
50 SAT 31 Aug 23:04:59 23:08:53 64° 76° (ENE) 23:12:49 437.505
ESTCUBE 1 31 Aug 23:10:03 23:14:18 44° 74° (ENE) 23:18:34 437.505/2401.250
POLYITAN 1 31 Aug 23:13:21 23:16:01 16° 92° (E) 23:18:49 437.675
AUBIESAT-1 31 Aug 23:14:05 23:17:12 25° 99° (E) 23:20:12 437.475
UKube-1 31 Aug 23:14:05 23:18:23 79° 259° (W) 23:22:43 .
POPSAT HIP 1 31 Aug 23:15:53 23:18:38 17° 93° (E) 23:21:33 437.405
DUCHIFAT 1 31 Aug 23:16:27 23:19:06 17° 92° (E) 23:21:55 145.980
M-CUBED/EXP-1 PRIME 31 Aug 23:19:04 23:22:39 35° 101° (ESE) 23:26:00 437.505
SPROUT 31 Aug 23:22:05 23:24:03 13° 68° (ENE) 23:26:15 437.525
AISAT 31 Aug 23:23:15 23:27:38 89° 249° (WSW) 23:32:05 437.250
CUBEBUG 1 31 Aug 23:24:09 23:28:19 50° 74° (ENE) 23:32:32 437.445
BUGSAT 1 31 Aug 23:25:04 23:26:44 12° 91° (E) 23:28:39 437.445
QB50P2 31 Aug 23:32:06 23:35:47 28° 96° (E) 23:39:30 145.880/145.840
NANOSAT C BR1 31 Aug 23:33:10 23:36:48 27° 96° (E) 23:40:29 145.865
UNISAT 6 31 Aug 23:38:41 23:43:15 80° 285° (WNW) 23:47:41 437.425
QB50P1 31 Aug 23:46:31 23:50:34 40° 98° (E) 23:54:36 145.935-145.965
CUSAT 1 31 Aug 23:50:27 23:53:38 29° 88° (E) 23:57:44 437.405
VELOX 1 31 Aug 23:51:46 23:55:57 42° 261° (W) 00:00:08 145.980
BEESAT 3 31 Aug 23:56:34 00:00:12 33° 55° (NE) 00:03:50 437.485
TIGRISAT 01 Sep 00:07:32 00:11:47 38° 287° (WNW) 00:15:53 435.000
BEESAT 2 01 Sep 00:08:37 00:12:17 33° 55° (NE) 00:15:57 435.950
RS-15 01 Sep 00:12:33 00:22:48 34° 42° (NE) 00:33:38 29.354- 29.394
DANDE 01 Sep 00:18:45 00:21:41 32° 90° (E) 00:25:26 436.750
TISAT 1 01 Sep 00:23:57 00:27:50 38° 73° (ENE) 00:31:47 437.305
ANTELSAT 01 Sep 00:25:05 00:28:48 24° 290° (WNW) 00:32:21 437.575/2403.000
PCSat 01 Sep 00:37:25 00:39:29 13° 105° (ESE) 00:41:54 145.827
ITUPSAT 1 01 Sep 00:44:05 00:45:05 11° 65° (ENE) 00:46:23 437.325
AIST 2 01 Sep 00:45:35 00:48:21 17° 49° (NE) 00:51:14 435.215
POLYITAN 1 01 Sep 00:48:06 00:52:03 35° 287° (WNW) 00:55:55 437.675
ESTCUBE 1 01 Sep 00:48:56 00:51:25 14° 269° (W) 00:53:41 437.505/2401.250
AUBIESAT-1 01 Sep 00:49:05 00:51:47 18° 296° (WNW) 00:54:15 437.475
POPSAT HIP 1 01 Sep 00:50:43 00:54:37 33° 287° (WNW) 00:58:26 437.405
DUCHIFAT 1 01 Sep 00:51:08 00:55:02 34° 287° (WNW) 00:58:52 145.980
Cosmos 2504 01 Sep 00:53:12 01:00:35 37° 287° (WNW) 01:08:14 435.465 / 435.565
M-CUBED/EXP-1 PRIME 01 Sep 00:55:05 00:57:06 13° 298° (WNW) 00:58:54 437.505
SPROUT 01 Sep 00:55:39 00:59:46 45° 261° (W) 01:03:54 437.525
BUGSAT 1 01 Sep 00:58:23 01:02:28 45° 286° (WNW) 01:06:32 437.445
CUBEBUG 1 01 Sep 01:03:37 01:05:02 11° 270° (W) 01:06:11 437.445
QB50P2 01 Sep 01:08:15 01:11:31 21° 290° (WNW) 01:14:40 145.880/145.840
NANOSAT C BR1 01 Sep 01:09:11 01:12:29 21° 290° (WNW) 01:15:40 145.865
SO-50 01 Sep 01:13:03 01:17:47 83° 119° (ESE) 01:22:42 436.795
BEESAT 01 Sep 01:14:17 01:18:02 24° 70° (ENE) 01:21:53 436.000
QB50P1 01 Sep 01:23:35 01:26:06 15° 292° (WNW) 01:28:27 145.935-145.965
CUSAT 1 01 Sep 01:33:58 01:36:31 16° 296° (WNW) 01:39:19 437.405
BEESAT 3 01 Sep 01:35:14 01:37:53 17° 249° (WSW) 01:40:23 437.485
SWISSCUBE 01 Sep 01:39:19 01:43:54 49° 73° (ENE) 01:48:30 437.505
Oscar 19 01 Sep 01:43:23 01:47:50 29° 96° (E) 01:52:21 437.125/150
BEESAT 2 01 Sep 01:47:24 01:50:05 17° 249° (WSW) 01:52:37 435.950
TISAT 1 01 Sep 02:01:28 02:03:48 14° 268° (W) 02:05:58 437.305
DANDE 01 Sep 02:04:41 02:05:26 10° 299° (WNW) 02:05:57 436.750
VERMONT LUNAR 01 Sep 02:12:30 02:14:03 13° 144° (SE) 02:15:39 437.305
PCSat 01 Sep 02:17:00 02:22:22 70° 297° (WNW) 02:27:48 145.827
ITUPSAT 1 01 Sep 02:17:41 02:22:27 71° 258° (WSW) 02:27:14 437.325
AIST 2 01 Sep 02:23:14 02:27:06 38° 246° (WSW) 02:30:54 435.215
KKS-1 01 Sep 02:24:18 02:27:26 20° 69° (ENE) 02:30:43 437.445
RS-15 01 Sep 02:24:33 02:36:28 74° 245° (WSW) 02:48:39 29.354- 29.394
Gurwin Techsat 1B 01 Sep 02:25:27 02:29:29 22° 94° (E) 02:33:39 435.225
ITAMSAT 1 01 Sep 02:42:35 02:46:48 26° 95° (E) 02:51:09 435.822/435.867
BEESAT 01 Sep 02:51:33 02:55:45 30° 264° (W) 02:59:53 436.000
JAS-2 01 Sep 02:56:12 03:01:18 23° 89° (E) 03:06:09 435.910
SO-50 01 Sep 02:56:44 02:59:03 13° 317° (NW) 03:01:12 436.795
GONETS M04 01 Sep 03:02:45 03:11:21 72° 93° (E) 03:20:02
SWISSCUBE 01 Sep 03:19:24 03:22:04 14° 269° (W) 03:24:28 437.505
Oscar 19 01 Sep 03:22:40 03:27:08 29° 290° (WNW) 03:31:29 437.125/150
STARS 01 Sep 03:40:13 03:44:37 85° 77° (ENE) 03:49:04 437.465
VERMONT LUNAR 01 Sep 03:47:11 03:50:11 90° 337° (NNW) 03:53:10 437.305
Cosmos 2499 01 Sep 03:47:44 03:55:02 36° 87° (E) 04:02:53 435.465 / 435.565
KKS-1 01 Sep 03:59:51 04:03:52 32° 263° (W) 04:07:51 437.445
Gurwin Techsat 1B 01 Sep 04:04:42 04:09:36 38° 289° (WNW) 04:14:27 435.225
MOZHAYETS 4 01 Sep 04:13:06 04:17:26 42° 74° (ENE) 04:21:47
AO-7 01 Sep 04:15:19 04:22:51 39° 98° (E) 04:30:28 29.400- 29.500
ITAMSAT 1 01 Sep 04:21:45 04:26:20 32° 290° (WNW) 04:30:51 435.822/435.867
PHONESAT 2.4 01 Sep 04:34:14 04:36:38 18° 145° (SE) 04:39:06 2401.200-2431.200
JAS-2 01 Sep 04:40:12 04:46:50 49° 289° (WNW) 04:52:39 435.910
RS-15 01 Sep 04:41:31 04:47:33 14° 259° (W) 04:52:21 29.354- 29.394
O/OREOS (USA 219) 01 Sep 04:41:41 04:45:41 29° 63° (ENE) 04:49:41 437.305
GONETS M04 01 Sep 05:02:46 05:09:10 21° 293° (WNW) 05:15:09
HORYU 2 01 Sep 05:05:11 05:09:39 82° 284° (WNW) 05:14:04 437.375
VERMONT LUNAR 01 Sep 05:24:08 05:26:49 29° 353° (N) 05:29:30 437.305
Cosmos 2499 01 Sep 05:40:05 05:48:03 44° 285° (WNW) 05:56:20 435.465 / 435.565
MOZHAYETS 4 01 Sep 05:51:59 05:54:52 16° 268° (W) 05:57:34
Cubesat XI-IV 01 Sep 06:04:09 06:06:41 14° 90° (E) 06:09:33 437.490
STRAND 1 01 Sep 06:05:30 06:08:24 16° 66° (ENE) 06:11:32 437.568
CUBESAT XI-V 01 Sep 06:07:23 06:11:53 59° 76° (ENE) 06:16:26 437.345
AO-7 01 Sep 06:08:01 06:15:41 42° 295° (WNW) 06:23:14 29.400- 29.500
PHONESAT 2.4 01 Sep 06:10:51 06:14:15 81° 337° (NNW) 06:17:41 2401.200-2431.200
O/OREOS (USA 219) 01 Sep 06:21:20 06:24:58 23° 258° (WSW) 06:28:29 437.305
PRISM 01 Sep 06:28:19 06:30:30 15° 69° (ENE) 06:32:51 437.425
CUTE-I 01 Sep 06:47:08 06:52:05 39° 98° (E) 06:57:03 437.470
VERMONT LUNAR 01 Sep 07:00:56 07:03:39 32° 10° (N) 07:06:24 437.305
BRITE-PL 01 Sep 07:24:47 07:28:28 18° 91° (E) 07:32:25 437.365/2234.400
Cubesat XI-IV 01 Sep 07:42:01 07:47:16 60° 286° (WNW) 07:52:30 437.490
STRAND 1 01 Sep 07:42:14 07:47:13 53° 260° (W) 07:52:12 437.568
CUBESAT XI-V 01 Sep 07:48:37 07:49:48 11° 271° (W) 07:50:39 437.345
PHONESAT 2.4 01 Sep 07:49:17 07:52:24 33° 354° (N) 07:55:32 2401.200-2431.200
GOMX 1 01 Sep 07:51:59 07:55:45 19° 91° (E) 07:59:43 467.674
PRISM 01 Sep 08:01:50 08:05:39 37° 262° (W) 08:09:27 437.425
ISS 01 Sep 08:02:49 08:05:44 32° 132° (SE) 08:08:42 145.825
DOVE 4 01 Sep 08:04:39 08:07:22 15° 89° (E) 08:10:22 437.250
AIST 1 01 Sep 08:18:52 08:23:05 76° 97° (E) 08:27:21
CUTE-I 01 Sep 08:27:48 08:31:57 23° 292° (WNW) 08:35:58 437.470
YUBILEINY 01 Sep 08:29:44 08:38:31 66° 81° (E) 08:47:14 435.215
VERMONT LUNAR 01 Sep 08:37:16 08:40:13 67° 205° (SSW) 08:43:10 437.305
CUTE 1.7 + AOD 2 01 Sep 08:42:07 08:45:09 20° 93° (E) 08:48:16 437.475
CINEMA 3 01 Sep 08:47:12 08:50:03 16° 90° (E) 08:53:06 145.822/145.860
HO-68 01 Sep 08:54:24 09:00:59 39° 98° (E) 09:07:37 435.675
CANX-2 01 Sep 08:55:36 08:59:23 32° 97° (E) 09:03:11 2200.000
BRITE-PL 01 Sep 09:01:50 09:07:15 53° 286° (WNW) 09:12:46 437.365/2234.400
Cosmos 2491 01 Sep 09:12:56 09:21:33 72° 93° (E) 09:30:13 435.465 / 435.565
SEEDS 01 Sep 09:16:12 09:20:07 39° 98° (E) 09:24:02 437.485
Oscar 11 01 Sep 09:25:46 09:27:44 13° 91° (E) 09:29:57 145.826/435.025
PHONESAT 2.4 01 Sep 09:27:28 09:30:43 39° 12° (NNE) 09:33:57 2401.200-2431.200
GOMX 1 01 Sep 09:28:51 09:34:07 48° 286° (WNW) 09:39:20 467.674
TIGRISAT 01 Sep 09:29:21 09:30:34 11° 66° (ENE) 09:32:05 435.000
COMPASS 1 01 Sep 09:37:15 09:41:19 55° 100° (E) 09:45:23 437.405
ISS 01 Sep 09:39:35 09:42:12 22° 328° (NNW) 09:44:48 145.825
DOVE 4 01 Sep 09:40:19 09:45:33 59° 285° (WNW) 09:50:42 437.250
ANTELSAT 01 Sep 09:44:42 09:47:43 18° 68° (ENE) 09:50:56 437.575/2403.000
AAUSAT CUBESAT 2 01 Sep 09:47:02 09:51:08 61° 100° (E) 09:55:11 437.432
SO-50 01 Sep 09:47:59 09:52:25 32° 53° (NE) 09:56:46 436.795
AUBIESAT-1 01 Sep 09:57:24 10:01:17 26° 66° (ENE) 10:05:13 437.475
M-CUBED/EXP-1 PRIME 01 Sep 10:02:42 10:07:01 35° 68° (ENE) 10:11:22 437.505
DELFI C3 01 Sep 10:08:18 10:11:38 26° 95° (E) 10:15:01 145.870
ZACube-1 01 Sep 10:08:29 10:12:18 28° 95° (E) 10:16:05 437.345
CUBEBUG 2 01 Sep 10:10:00 10:14:35 54° 99° (E) 10:19:00 437.445
FUNcube-1 01 Sep 10:13:34 10:17:30 31° 96° (E) 10:21:23 145.935
UWE-3 01 Sep 10:16:03 10:20:28 47° 98° (E) 10:24:45 435.000/436.395/437.385
CUTE 1.7 + AOD 2 01 Sep 10:17:27 10:21:05 28° 288° (WNW) 10:24:37 437.475
CINEMA 3 01 Sep 10:22:46 10:27:34 47° 286° (WNW) 10:32:12 145.822/145.860
QB50P2 01 Sep 10:23:06 10:25:25 15° 68° (ENE) 10:27:55 145.880/145.840
NANOSAT C BR1 01 Sep 10:23:51 10:26:02 14° 68° (ENE) 10:28:24 145.865
CUSAT 1 01 Sep 10:27:22 10:34:25 35° 73° (ENE) 10:41:49 437.405
YUBILEINY 01 Sep 10:28:06 10:34:42 23° 276° (W) 10:40:50 435.215
CANX-2 01 Sep 10:32:13 10:35:06 17° 290° (WNW) 10:37:47 2200.000
UNISAT 6 01 Sep 10:33:50 10:38:25 61° 76° (ENE) 10:43:06 437.425
QB50P1 01 Sep 10:36:44 10:39:50 21° 70° (ENE) 10:43:04 145.935-145.965
HO-68 01 Sep 10:42:11 10:48:40 36° 293° (WNW) 10:54:59 435.675
Cosmos 2504 01 Sep 10:42:54 10:51:17 64° 80° (E) 10:59:07 435.465 / 435.565
HUMSAT D 01 Sep 10:49:24 10:53:04 29° 96° (E) 10:56:44 437.325/437.525
SEEDS 01 Sep 10:53:17 10:55:35 14° 291° (WNW) 10:57:43 437.485
DX 1 01 Sep 10:53:54 10:56:50 18° 93° (E) 10:59:55 434.975-435.025
DANDE 01 Sep 10:58:24 11:05:39 42° 75° (ENE) 11:13:40 436.750
Oscar 11 01 Sep 11:00:05 11:04:11 42° 286° (WNW) 11:08:13 145.826/435.025
TIGRISAT 01 Sep 11:02:08 11:06:47 68° 259° (W) 11:11:29 435.000
PHONESAT 2.4 01 Sep 11:05:20 11:08:41 56° 207° (SSW) 11:12:01 2401.200-2431.200
UKube-1 01 Sep 11:05:23 11:08:41 22° 95° (E) 11:12:05 .
ESTCUBE 1 01 Sep 11:08:00 11:09:29 12° 90° (E) 11:11:16 437.505/2401.250
PCSat 01 Sep 11:08:10 11:13:23 46° 59° (ENE) 11:18:36 145.827
Cosmos 2491 01 Sep 11:12:56 11:19:22 21° 293° (WNW) 11:25:23 435.465 / 435.565
COMPASS 1 01 Sep 11:15:54 11:16:33 10° 293° (WNW) 11:16:57 437.405
AISAT 01 Sep 11:17:41 11:21:09 22° 95° (E) 11:24:43 437.250
CUBEBUG 1 01 Sep 11:18:02 11:19:44 12° 91° (E) 11:21:43 437.445
ANTELSAT 01 Sep 11:19:46 11:24:11 41° 262° (W) 11:28:38 437.575/2403.000
SO-50 01 Sep 11:28:46 11:32:50 26° 248° (WSW) 11:36:43 436.795
AUBIESAT-1 01 Sep 11:31:40 11:35:51 30° 260° (W) 11:39:56 437.475
POLYITAN 1 01 Sep 11:37:10 11:41:25 72° 259° (WSW) 11:45:42 437.675
M-CUBED/EXP-1 PRIME 01 Sep 11:38:01 11:41:48 22° 262° (W) 11:45:28 437.505
DUCHIFAT 1 01 Sep 11:39:32 11:43:44 72° 259° (WSW) 11:47:59 145.980
POPSAT HIP 1 01 Sep 11:39:35 11:43:47 69° 259° (W) 11:48:04 437.405
DELFI C3 01 Sep 11:43:40 11:46:33 19° 289° (WNW) 11:49:18 145.870
BUGSAT 1 01 Sep 11:44:49 11:48:51 78° 77° (ENE) 11:52:59 437.445
ZACube-1 01 Sep 11:45:01 11:48:31 22° 290° (WNW) 11:51:50 437.345
VELOX 1 01 Sep 11:45:06 11:49:23 44° 99° (E) 11:53:40 145.980
CUBEBUG 2 01 Sep 11:48:30 11:50:47 13° 293° (WNW) 11:52:49 437.445
FUNcube-1 01 Sep 11:50:19 11:53:37 20° 291° (WNW) 11:56:45 145.935
UWE-3 01 Sep 11:54:03 11:56:34 14° 293° (WNW) 11:58:51 435.000/436.395/437.385
QB50P2 01 Sep 11:56:59 12:00:59 40° 262° (W) 12:05:01 145.880/145.840
NANOSAT C BR1 01 Sep 11:57:31 12:01:31 41° 262° (W) 12:05:34 145.865
CUSAT 1 01 Sep 12:09:30 12:17:08 48° 267° (W) 12:24:49 437.405
QB50P1 01 Sep 12:11:53 12:15:33 27° 264° (W) 12:19:11 145.935-145.965
UNISAT 6 01 Sep 12:14:10 12:15:40 11° 271° (W) 12:16:51 437.425
50 SAT 01 Sep 12:17:33 12:21:18 51° 285° (WNW) 12:25:01 437.505
JUGNU 01 Sep 12:18:59 12:21:03 12° 167° (SSE) 12:23:12 437.505
HUMSAT D 01 Sep 12:25:34 12:28:37 19° 290° (WNW) 12:31:29 437.325/437.525
DX 1 01 Sep 12:29:13 12:33:11 33° 288° (WNW) 12:37:05 434.975-435.025
Cosmos 2504 01 Sep 12:36:33 12:42:47 23° 277° (W) 12:48:26 435.465 / 435.565
UKube-1 01 Sep 12:41:06 12:44:49 27° 289° (WNW) 12:48:26 .
DANDE 01 Sep 12:41:29 12:48:47 41° 268° (W) 12:56:30 436.750
ESTCUBE 1 01 Sep 12:42:20 12:46:44 52° 285° (WNW) 12:51:06 437.505/2401.250
SPROUT 01 Sep 12:45:21 12:49:23 37° 98° (E) 12:53:26 437.525
CUBEBUG 1 01 Sep 12:52:09 12:56:25 49° 286° (WNW) 13:00:40 437.445
PCSat 01 Sep 12:52:33 12:56:29 20° 253° (WSW) 13:00:14 145.827
AISAT 01 Sep 12:53:51 12:57:43 28° 289° (WNW) 13:01:30 437.250
Oscar 19 01 Sep 12:57:09 13:01:35 31° 70° (ENE) 13:06:10 437.125/150
GONETS M04 01 Sep 13:17:36 13:24:58 30° 71° (ENE) 13:32:34
VELOX 1 01 Sep 13:22:58 13:25:35 15° 292° (WNW) 13:28:01 145.980
Gurwin Techsat 1B 01 Sep 13:43:28 13:47:46 27° 69° (ENE) 13:52:12 435.225
SWISSCUBE 01 Sep 13:44:03 13:46:53 16° 92° (E) 13:49:56 437.505
TISAT 1 01 Sep 13:46:40 13:50:57 72° 284° (WNW) 13:55:10 437.305
BEESAT 3 01 Sep 13:47:41 13:49:27 13° 110° (ESE) 13:51:26 437.485
ITAMSAT 1 01 Sep 13:57:32 14:01:54 29° 70° (ENE) 14:06:21 435.822/435.867
BEESAT 2 01 Sep 14:00:35 14:02:31 13° 110° (ESE) 14:04:39 435.950
JUGNU 01 Sep 14:05:36 14:09:21 17° 177° (S) 14:13:06 437.505
ITUPSAT 1 01 Sep 14:21:41 14:26:05 37° 98° (E) 14:30:30 437.325
SPROUT 01 Sep 14:22:25 14:25:10 16° 291° (WNW) 14:27:45 437.525
ISS 01 Sep 14:33:35 14:35:18 14° 27° (NNE) 14:37:05 145.825
RS-15 01 Sep 14:35:44 14:42:59 22° 103° (ESE) 14:51:01 29.354- 29.394
Oscar 19 01 Sep 14:36:36 14:40:57 27° 265° (W) 14:45:15 437.125/150
JAS-2 01 Sep 14:45:45 14:53:08 57° 72° (ENE) 15:00:48 435.910
BEESAT 01 Sep 14:54:11 14:58:58 89° 109° (ESE) 15:03:43 436.000
AO-7 01 Sep 15:10:48 15:18:21 41° 65° (ENE) 15:26:01 29.400- 29.500
GONETS M04 01 Sep 15:13:45 15:22:13 52° 269° (W) 15:30:37
SRMSAT 01 Sep 15:17:02 15:20:28 16° 173° (S) 15:23:57 437.500
SWISSCUBE 01 Sep 15:20:29 15:24:59 43° 287° (WNW) 15:29:27 437.505
Gurwin Techsat 1B 01 Sep 15:22:52 15:27:39 33° 264° (W) 15:32:22 435.225
BEESAT 3 01 Sep 15:23:08 15:27:01 44° 303° (WNW) 15:30:57 437.485
STARS 01 Sep 15:33:59 15:37:11 20° 94° (E) 15:40:29 437.465
Cosmos 2499 01 Sep 15:35:13 15:43:43 61° 79° (E) 15:51:36 435.465 / 435.565
BEESAT 2 01 Sep 15:36:19 15:40:13 43° 303° (WNW) 15:44:09 435.950
ITAMSAT 1 01 Sep 15:36:54 15:41:22 28° 264° (W) 15:45:45 435.822/435.867
KKS-1 01 Sep 15:53:31 15:57:59 60° 100° (E) 16:02:24 437.445
JUGNU 01 Sep 15:54:09 15:57:40 16° 187° (S) 16:01:07 437.505
HORYU 2 01 Sep 15:59:54 16:04:20 61° 75° (ENE) 16:08:46 437.375
ITUPSAT 1 01 Sep 16:00:17 16:03:44 19° 292° (WNW) 16:07:01 437.325
ISS 01 Sep 16:08:50 16:12:05 75° 224° (SW) 16:15:19 145.825
MOZHAYETS 4 01 Sep 16:13:20 16:15:05 12° 90° (E) 16:17:08
AIST 2 01 Sep 16:17:20 16:21:34 86° 296° (WNW) 16:25:51 435.215
JAS-2 01 Sep 16:32:07 16:38:30 28° 269° (W) 16:44:52 435.910
RS-15 01 Sep 16:43:19 16:54:14 81° 300° (WNW) 17:05:36 29.354- 29.394
AO-7 01 Sep 17:03:22 17:11:08 41° 261° (W) 17:18:48 29.400- 29.500
SRMSAT 01 Sep 17:05:09 17:08:56 17° 183° (S) 17:12:42 437.500
STARS 01 Sep 17:09:44 17:13:41 31° 288° (WNW) 17:17:32 437.465
Cubesat XI-IV 01 Sep 17:22:56 17:26:23 18° 67° (ENE) 17:30:01 437.490
Cosmos 2499 01 Sep 17:29:41 17:36:13 24° 276° (W) 17:42:07 435.465 / 435.565
KKS-1 01 Sep 17:32:37 17:34:09 11° 294° (WNW) 17:35:24 437.445
HORYU 2 01 Sep 17:40:54 17:41:25 10° 271° (W) 17:41:37 437.375
MOZHAYETS 4 01 Sep 17:48:15 17:52:41 51° 285° (WNW) 17:57:04
CUTE-I 01 Sep 18:05:50 18:10:52 47° 73° (ENE) 18:15:58 437.470
CUBESAT XI-V 01 Sep 18:08:07 18:11:21 19° 93° (E) 18:14:45 437.345
